Kremmling, CO

3:04 PM MST on December 14, 2017 (GMT -0700)
Kremmling

Weather History for K20V - November, 2011

Change the Weather History Date:

Thursday, November 10, 2011

  Actual Average Record
Temperature  
Mean Temperature 24 °F -  
Max Temperature 42 °F - 68 °F (2016)
Min Temperature 6 °F - 6 °F (2011)
Degree Days  
Heating Degree Days 41    
Month to date heating degree days  
Cooling Degree Days 0    
Month to date cooling degree days  
Moisture  
Dew Point 6 °F    
Average Humidity 60    
Maximum Humidity 85    
Minimum Humidity 16    
Precipitation  
Precipitation 0.00 in - 0.14 in (2012)
Snow  
Snow 0.00 in - - ()
Snow Depth -    
Sea Level Pressure  
Sea Level Pressure 30.47 in    
Wind  
Wind Speed 1 mph (South)    
Max Wind Speed 10 mph    
Max Gust Speed -    
Visibility 10 miles    
Events      
T = Trace of Precipitation, MM = Missing Value Source: NWS Daily Summary

Daily Weather History Graph

Daily Weather History Graph

Search for Another Location

Airport or City:

Trip Planner

Search our weather history database for the weather conditions in past years. The results will help you decide how hot, cold, wet, or windy it might be!

Date:

Astronomy

Nov. 10, 2011 Rise Set
Actual Time 6:44 AM MST 4:53 PM MST
Civil Twilight 6:16 AM MST 5:22 PM MST
Nautical Twilight 5:43 AM MST 5:54 PM MST
Astronomical Twilight 5:11 AM MST 6:26 PM MST
Moon 4:43 PM MST (11/10) 6:39 AM MST (11/10)
Length of Visible Light 11h 06m
Length of Day
10h 08m
Full, 100% of the Moon is Illuminated
Nov 10
Full
Nov 10
Full
Nov 18
Last Quarter
Nov 24
New
Dec 2
First Quarter

Hourly Weather History & Observations

Time (MST) Temp. Windchill Dew Point Humidity Pressure Visibility Wind Dir Wind Speed Gust Speed Precip Events Conditions
12:06 AM 14.0 °F - 8.6 °F 79% 30.53 in 10.0 mi Calm Calm - N/A   Clear
12:26 AM 12.2 °F - 8.6 °F 85% 30.53 in 10.0 mi Calm Calm - N/A   Clear
12:46 AM 12.2 °F - 8.6 °F 85% 30.53 in 10.0 mi Calm Calm - N/A   Clear
1:06 AM 12.2 °F - 8.6 °F 85% 30.54 in 10.0 mi Calm Calm - N/A   Clear
1:26 AM 12.2 °F - 5.0 °F 73% 30.54 in 10.0 mi Calm Calm - N/A   Clear
1:46 AM 12.2 °F - 8.6 °F 85% 30.54 in 10.0 mi Calm Calm - N/A   Clear
2:06 AM 10.4 °F - 5.0 °F 79% 30.54 in 10.0 mi Calm Calm - N/A   Clear
2:26 AM 12.2 °F - 5.0 °F 73% 30.54 in 7.0 mi Calm Calm - N/A   Clear
2:46 AM 10.4 °F - 5.0 °F 79% 30.54 in 10.0 mi Calm Calm - N/A   Clear
3:06 AM 10.4 °F - 5.0 °F 79% 30.53 in 7.0 mi Calm Calm - N/A   Clear
3:26 AM 10.4 °F - 5.0 °F 79% 30.53 in 10.0 mi Calm Calm - N/A   Clear
3:46 AM 10.4 °F - 5.0 °F 79% 30.53 in 10.0 mi Calm Calm - N/A   Clear
4:06 AM 10.4 °F - 5.0 °F 79% 30.53 in 10.0 mi Calm Calm - N/A   Clear
4:26 AM 10.4 °F - 5.0 °F 79% 30.53 in 10.0 mi Calm Calm - N/A   Clear
4:46 AM 10.4 °F - 5.0 °F 79% 30.53 in 10.0 mi Calm Calm - N/A   Clear
5:06 AM 8.6 °F - 3.2 °F 79% 30.54 in 10.0 mi Calm Calm - N/A   Clear
5:25 AM 8.6 °F - 3.2 °F 79% 30.54 in 10.0 mi Calm Calm - N/A   Clear
5:45 AM 10.4 °F - 5.0 °F 79% 30.54 in 10.0 mi Calm Calm - N/A   Clear
6:06 AM 8.6 °F - 3.2 °F 79% 30.54 in 10.0 mi Calm Calm - N/A   Clear
6:26 AM 8.6 °F - 3.2 °F 79% 30.54 in 7.0 mi Calm Calm - N/A   Clear
6:45 AM 6.8 °F - 1.4 °F 79% 30.53 in 10.0 mi Calm Calm - N/A   Clear
7:06 AM 8.6 °F - 3.2 °F 79% 30.54 in 10.0 mi Calm Calm - N/A   Clear
7:26 AM 10.4 °F - 5.0 °F 79% 30.54 in 10.0 mi Calm Calm - N/A   Clear
7:46 AM 10.4 °F - 5.0 °F 79% 30.55 in 10.0 mi Calm Calm - N/A   Clear
8:06 AM 12.2 °F - 6.8 °F 79% 30.55 in 10.0 mi Calm Calm - N/A   Clear
8:26 AM 12.2 °F - 5.0 °F 73% 30.55 in 10.0 mi Calm Calm - N/A   Clear
8:46 AM 14.0 °F - 8.6 °F 79% 30.55 in 10.0 mi Calm Calm - N/A   Clear
9:06 AM 17.6 °F - 10.4 °F 73% 30.54 in 10.0 mi Calm Calm - N/A   Clear
9:26 AM 19.4 °F - 10.4 °F 68% 30.54 in 10.0 mi Calm Calm - N/A   Clear
9:46 AM 21.2 °F - 8.6 °F 58% 30.53 in 10.0 mi Calm Calm - N/A   Clear
10:06 AM 21.2 °F - 6.8 °F 54% 30.52 in 10.0 mi Calm Calm - N/A   Clear
10:26 AM 23.0 °F - 8.6 °F 54% 30.51 in 10.0 mi Calm Calm - N/A   Clear
10:46 AM 24.8 °F - 10.4 °F 54% 30.50 in 10.0 mi Calm Calm - N/A   Clear
11:06 AM 26.6 °F - 10.4 °F 51% 30.49 in 10.0 mi Calm Calm - N/A   Clear
11:26 AM 28.4 °F - 10.4 °F 47% 30.47 in 10.0 mi Calm Calm - N/A   Clear
11:46 AM 30.2 °F - 12.2 °F 47% 30.45 in 10.0 mi Calm Calm - N/A   Clear
12:26 PM 32.0 °F - 12.2 °F 44% 30.41 in 10.0 mi Calm Calm - N/A   Clear
12:46 PM 33.8 °F - 12.2 °F 41% 30.40 in 10.0 mi Calm Calm - N/A   Clear
1:26 PM 35.6 °F 28.6 °F 10.4 °F 35% 30.37 in 10.0 mi ESE 9.2 mph - N/A   Clear
1:46 PM 37.4 °F 30.3 °F 12.2 °F 36% 30.35 in 10.0 mi ESE 10.4 mph - N/A   Clear
2:06 PM 37.4 °F 30.8 °F 10.4 °F 33% 30.34 in 10.0 mi East 9.2 mph - N/A   Clear
2:26 PM 41.0 °F 35.8 °F 8.6 °F 26% 30.33 in 10.0 mi ESE 8.1 mph - N/A   Clear
2:46 PM 41.0 °F - 5.0 °F 23% 30.32 in 10.0 mi Calm Calm - N/A   Clear
3:06 PM 41.0 °F - 3.2 °F 21% 30.32 in 10.0 mi Calm Calm - N/A   Clear
3:26 PM 42.8 °F 40.1 °F 3.2 °F 19% 30.31 in 10.0 mi SSW 4.6 mph - N/A   Clear
3:46 PM 42.8 °F 38.6 °F -0.4 °F 16% 30.31 in 10.0 mi WSW 6.9 mph - N/A   Clear
4:05 PM 41.0 °F 39.0 °F -0.4 °F 18% 30.30 in 10.0 mi WSW 3.5 mph - N/A   Clear
4:25 PM 41.0 °F 37.1 °F -0.4 °F 18% 30.29 in 10.0 mi WSW 5.8 mph - N/A   Clear
4:45 PM 37.4 °F 34.9 °F -0.4 °F 20% 30.29 in 10.0 mi SW 3.5 mph - N/A   Clear
5:06 PM 35.6 °F - 1.4 °F 24% 30.28 in 10.0 mi Calm Calm - N/A   Clear
5:26 PM 33.8 °F 30.8 °F 3.2 °F 28% 30.27 in 10.0 mi SSE 3.5 mph - N/A   Clear
5:46 PM 35.6 °F 32.8 °F -2.2 °F 20% 30.27 in 10.0 mi NW 3.5 mph - N/A   Clear
6:06 PM 33.8 °F 28.6 °F 3.2 °F 28% 30.27 in 10.0 mi SE 5.8 mph - N/A   Clear
6:25 PM 32.0 °F - 3.2 °F 30% 30.27 in 10.0 mi Calm Calm - N/A   Clear
6:46 PM 30.2 °F 26.7 °F 8.6 °F 40% 30.27 in 10.0 mi West 3.5 mph - N/A   Clear
7:06 PM 28.4 °F 22.2 °F 8.6 °F 43% 30.27 in 10.0 mi ESE 5.8 mph - N/A   Clear
7:26 PM 30.2 °F - 5.0 °F 34% 30.27 in 10.0 mi Calm Calm - N/A   Clear
7:46 PM 30.2 °F - 1.4 °F 29% 30.27 in 10.0 mi Calm Calm - N/A   Clear
8:06 PM 28.4 °F 23.3 °F 6.8 °F 40% 30.28 in 10.0 mi East 4.6 mph - N/A   Clear
8:26 PM 26.6 °F - 5.0 °F 40% 30.28 in 10.0 mi Calm Calm - N/A   Clear
8:46 PM 23.0 °F 15.8 °F 10.4 °F 59% 30.28 in 10.0 mi East 5.8 mph - N/A   Clear
9:06 PM 23.0 °F - 6.8 °F 50% 30.28 in 10.0 mi Calm Calm - N/A   Clear
9:26 PM 21.2 °F - 8.6 °F 58% 30.28 in 10.0 mi Calm Calm - N/A   Clear
10:06 PM 19.4 °F - 8.6 °F 63% 30.28 in 10.0 mi Calm Calm - N/A   Clear
10:26 PM 19.4 °F 11.5 °F 8.6 °F 63% 30.27 in 10.0 mi SSE 5.8 mph - N/A   Clear
10:46 PM 19.4 °F - 8.6 °F 63% 30.27 in 7.0 mi Calm Calm - N/A   Clear
11:06 PM 17.6 °F - 8.6 °F 68% 30.28 in 10.0 mi Calm Calm - N/A   Clear
11:46 PM 15.8 °F - 6.8 °F 68% 30.26 in 10.0 mi Calm Calm - N/A   Clear